Zurück zum Katalog

THOR ABLESTAR DEB

AktivLEO
NORAD 245·DEBRIS·🇺🇸 United States

Gestartet Jun 29, 1961 von Cape Canaveral Space Force Station

Loading…

Nächste Überflüge (nächste 24 Stunden)

TLE

AktuellSource: Space-Track

Epoche: Sep 14, 2026, 13:45 UTC

1 00245U 61015CA  26257.57317681  .00000472  00000-0  26887-3 0  9991
2 00245  66.1025 296.5997 0045401 157.5875 202.7210 14.18289565340552

Verfolge THOR ABLESTAR DEB in Echtzeit mit AllMySat

Download on the App Store